DW1901 Weather Reports


Display with metric or nautical units.
time (UTC)temp
F
wind
direction
speed
MPH
gust
MPH
rain 1hr
in
rain 24hr
in
rain mn
in
humidity
%
barometer
mb
20260510174818 73 360 3.0 6.0 0.00 0.29 0.00 62 1011.8
20260510172938 72 360 1.0 8.0 0.00 0.29 0.00 64 1011.9
20260510171018 71 360 1.0 6.0 0.00 0.29 0.00 67 1012.0
20260510165118 68 360 0.0 3.0 0.00 0.29 0.00 71 1012.2
20260510163218 68 360 0.0 3.0 0.00 0.29 0.00 72 1012.4
20260510161319 66 360 0.0 3.0 0.00 0.29 0.00 76 1012.5
20260510155438 64 360 0.0 3.0 0.00 0.29 0.00 80 1012.4
20260510153538 63 360 0.0 2.0 0.00 0.29 0.00 82 1012.7
20260510151638 60 360 2.0 2.0 0.00 0.29 0.00 81 1012.7
20260510145718 59 360 0.0 1.0 0.00 0.29 0.00 81 1013.1
20260510143818 58 360 0.0 1.0 0.00 0.29 0.00 81 1012.9
20260510141918 57 360 0.0 0.0 0.00 0.29 0.00 81 1012.9
20260510140038 56 360 0.0 0.0 0.00 0.29 0.00 81 1012.8
20260510134118 56 360 0.0 0.0 0.00 0.29 0.00 81 1012.8
20260510132238 55 360 0.0 0.0 0.00 0.29 0.00 81 1012.6
20260510130339 55 360 0.0 0.0 0.00 0.29 0.00 81 1012.5
20260510124418 54 360 0.0 0.0 0.00 0.29 0.00 81 1012.4
20260510122518 54 360 0.0 0.0 0.00 0.29 0.00 81 1012.1
20260510120618 54 360 0.0 0.0 0.00 0.29 0.00 81 1011.9
20260510114718 54 360 0.0 0.0 0.00 0.29 0.00 81 1011.8
20260510112818 54 360 0.0 0.0 0.00 0.29 0.00 81 1011.8
20260510110918 53 360 0.0 0.0 0.00 0.29 0.00 81 1011.3
20260510105018 53 360 0.0 0.0 0.00 0.29 0.00 81 1011.2
20260510103118 53 360 0.0 0.0 0.00 0.29 0.00 81 1011.2
20260510101218 53 360 0.0 0.0 0.00 0.29 0.00 81 1011.3
20260510095318 53 360 0.0 0.0 0.00 0.29 0.00 81 1011.2
20260510093418 52 360 0.0 0.0 0.00 0.29 0.00 81 1011.2
20260510091517 52 360 0.0 0.0 0.00 0.29 0.00 81 1011.5
20260510085617 53 360 0.0 0.0 0.00 0.29 0.00 81 1011.8
20260510083717 53 360 0.0 0.0 0.00 0.29 0.00 81 1011.6
20260510081817 53 360 0.0 0.0 0.00 0.29 0.00 81 1011.6
20260510075918 53 360 0.0 0.0 0.00 0.29 0.00 81 1011.4
20260510074018 53 360 0.0 0.0 0.00 0.29 0.00 81 1010.7
20260510072118 53 360 0.0 0.0 0.00 0.29 0.00 81 1010.7
20260510070217 53 360 0.0 0.0 0.00 0.29 0.00 81 1010.8
20260510064318 53 360 0.0 0.0 0.00 0.29 0.00 81 1010.9
20260510062417 53 360 0.0 0.0 0.00 0.29 0.00 81 1010.9
20260510060518 52 360 0.0 0.0 0.00 0.29 0.00 81 1010.8
20260510054617 52 360 0.0 0.0 0.00 0.29 0.00 81 1010.7
20260510052718 52 360 0.0 0.0 0.00 0.29 0.00 81 1010.6
20260510050837 51 360 0.0 0.0 0.00 0.29 0.00 81 1010.8
20260510044917 50 360 0.0 0.0 0.00 0.29 0.00 81 1010.8
20260510043018 50 360 0.0 0.0 0.00 0.29 0.00 81 1010.9
20260510041118 50 360 0.0 0.0 0.00 0.29 0.00 82 1010.7
20260510035659 50 360 0.0 0.0 0.00 0.18 0.30 82 1010.8
20260510033739 50 360 0.0 0.0 0.00 0.18 0.30 82 1010.5
20260510031838 51 360 0.0 0.0 0.00 0.18 0.30 82 1010.3
20260510025919 51 360 0.0 0.0 0.00 0.18 0.30 82 1010.3
20260510024018 52 360 0.0 0.0 0.00 0.18 0.30 82 1010.5
20260510022118 52 360 0.0 0.0 0.00 0.18 0.30 82 1010.6
20260510020219 53 360 0.0 0.0 0.00 0.18 0.30 82 1010.6
20260510014319 53 360 0.0 0.0 0.00 0.18 0.30 82 1010.5
20260510012418 54 360 0.0 0.0 0.00 0.18 0.30 82 1010.4
20260510010519 55 360 0.0 0.0 0.00 0.18 0.30 82 1009.9
20260510004619 55 360 0.0 0.0 0.00 0.18 0.30 81 1009.9
20260510002718 56 360 0.0 0.0 0.00 0.18 0.30 81 1009.9
20260510000818 56 360 0.0 0.0 0.00 0.18 0.30 82 1009.9
20260509234918 56 360 0.0 0.0 0.00 0.17 0.29 82 1009.7
20260509233018 56 360 0.0 0.0 0.05 0.17 0.29 82 1009.6
20260509231118 56 360 0.0 2.0 0.00 0.16 0.28 81 1009.7
20260509225238 56 360 0.0 2.0 0.06 0.15 0.27 81 1010.0
20260509223318 56 360 1.0 2.0 0.08 0.13 0.25 82 1010.0
20260509221419 56 360 0.0 0.0 0.10 0.11 0.23 82 1010.1
20260509215518 56 360 0.0 0.0 0.10 0.09 0.21 82 1010.3
20260509213618 56 360 0.0 0.0 0.11 0.07 0.19 82 1010.2
20260509211719 57 360 0.0 2.0 0.00 0.04 0.16 82 1010.4
20260509205818 57 360 1.0 2.0 0.05 0.03 0.15 82 1010.4
20260509203918 57 360 0.0 0.0 0.00 0.02 0.14 82 1010.6
20260509202018 57 360 0.0 1.0 0.04 0.01 0.13 82 1010.9
20260509200119 58 360 0.0 1.0 0.00 0.00 0.12 82 1010.8
20260509194218 58 360 0.0 0.0 0.00 0.00 0.11 82 1010.5
20260509192318 58 360 0.0 2.0 0.00 0.00 0.11 82 1010.4
20260509190418 58 360 0.0 0.0 0.04 0.00 0.11 82 1010.6
20260509184618 57 360 0.0 0.0 0.05 0.00 0.10 81 1010.7
20260509182618 58 360 2.0 3.0 0.12 0.00 0.08 81 1010.9
20260509180718 61 360 0.0 3.0 0.18 0.00 0.03 75 1011.0